Home   Weather   Altdorf   Past weeks
Flag for Switzerland

Past Weather in Altdorf, Uri, Switzerland — Yesterday and Last 2 Weeks

Now
52 °F

Drizzle. Low clouds.


Feels Like: 51 °F
Forecast: 54 / 44 °F
Wind: 3 mph from Northwest

Location: Altdorf

Current Time: May 20, 2019 at 11:47:07 am

Latest Report: May 20, 2019 at 11:00 am


Visibility: 9 mi

Pressure: 29.75 "Hg

Humidity: 91%

Dew Point: 49 °F

Location of AltdorfLocation

Past Weather in Altdorf — Graph

°F

Altdorf Temperature Yesterday

Maximum temperature yesterday: 61 °F (at 1:00 pm)
Minimum temperature yesterday: 53 °F (at 7:00 am)
Average temperature yesterday: 56 °F

High & Low Weather Summary for the Past Weeks

 TemperatureHumidityPressure
High71 °F (May 17, 4:00 pm)98% (May 9, 5:00 am)30.46 "Hg (May 9, 5:00 am)
Low30 °F (May 7, 5:00 am)29% (May 17, 4:00 pm)29.55 "Hg (May 8, 5:00 pm)
Average50 °F71%29.97 "Hg
* Reported May 5 10:00 am — May 20 10:00 am, Altdorf. Weather by CustomWeather, © 2019

Note: Actual official high and low records may vary slightly from our data, if they occured in-between our weather recording intervals... More about our weather records

Advertising

Altdorf Weather History for the Previous 24 Hours

Scroll right to see more
 ConditionsComfort  
Time TempWeatherWind HumidityBarometerVisibility
10:00 am
Mon, May 20
52 °FCool.2 mph93%29.73 "HgN/A
9:00 am52 °FCool.3 mph95%29.72 "HgN/A
8:00 am51 °FLight rain. Low clouds.1 mph95%29.71 "Hg1 mi
7:00 am51 °FCool.3 mph95%29.71 "HgN/A
6:00 am51 °FCool.5 mph96%29.70 "HgN/A
5:00 am51 °FLight rain. Overcast.2 mph97%29.69 "Hg6 mi
4:00 am52 °FCool.1 mph97%29.69 "HgN/A
3:00 am52 °FCool.1 mph95%29.69 "HgN/A
2:00 am52 °FLight rain. Overcast.2 mph93%29.69 "Hg6 mi
1:00 am54 °FCool.1 mph95%29.70 "HgN/A
12:00 am54 °FCool.3 mph95%29.69 "HgN/A
11:00 pm
Sun, May 19
54 °FLight rain. Overcast.2 mph96%29.69 "Hg6 mi
10:00 pm54 °FCool.2 mph94%29.68 "HgN/A
9:00 pm55 °FCool.1 mph91%29.66 "HgN/A
8:00 pm56 °FLight rain. Overcast.No wind93%29.65 "Hg6 mi
7:00 pm56 °FCool.1 mph87%29.64 "HgN/A
6:00 pm58 °FCool.3 mph84%29.63 "HgN/A
5:00 pm58 °FDrizzle. Overcast.6 mph77%29.63 "Hg16 mi
4:00 pm60 °FCool.5 mph65%29.62 "HgN/A
3:00 pm60 °FCool.6 mph66%29.62 "HgN/A
2:00 pm61 °FOvercast.8 mph65%29.62 "Hg16 mi
1:00 pm61 °FCool.3 mph71%29.64 "HgN/A
12:00 pm58 °FCool.3 mph76%29.66 "HgN/A
11:00 am55 °FDrizzle. Overcast.3 mph83%29.67 "Hg16 mi
Weather by CustomWeather, © 2019

See weather overview